This demonstration page uses our WeatherBlox Daily Observations layout. Learn more.

Hourly Observations for June 26, 2020

Temp ( °F °C ) Dew Point ( °F °C ) Humidity (%) Winds ( mph kmh ) Pressure ( in mb ) Visibility ( mi km ) Precip ( " mm )
12:54 am 00:54 Clear 80 26.7 63 17.2 56 56 S 17 28 29.79 1009 10 16.0934 0 0
1:54 am 01:54 Clear 80 26.7 61 16.1 52 52 SSW 13 20 29.82 1010 10 16.0934 0 0
2:54 am 02:54 Clear 78 25.6 62 16.7 58 58 S 13 20 29.81 1010 10 16.0934 0 0
3:54 am 03:54 Clear 77 25 62 16.7 60 60 S 16 26 29.81 1010 10 16.0934 0 0
4:54 am 04:54 Clear 79 26.1 63 17.2 58 58 SSW 14 22 29.81 1010 10 16.0934 0 0
5:54 am 05:54 Partly Cloudy 79 26.1 63 17.2 58 58 WSW 7 11 29.85 1011 10 16.0934 0 0
7:54 am 07:54 Sunny 78 25.6 66 18.9 67 67 S 6 9 29.86 1011 10 16.0934 0 0
8:54 am 08:54 Sunny 81 27.2 67 19.4 62 62 SW 9 15 29.86 1011 10 16.0934 0 0
9:54 am 09:54 Sunny 82 27.8 67 19.4 60 60 SSW 10 17 29.87 1012 10 16.0934 0 0
10:54 am 10:54 Sunny 83 28.3 68 20 61 61 WSW 12 19 29.86 1011 10 16.0934 0 0
11:54 am 11:54 Sunny 85 29.4 69 20.6 59 59 SW 7 11 29.86 1011 10 16.0934 0 0
12:54 pm 12:54 Sunny 85 29.4 69 20.6 59 59 WSW 5 7 29.86 1011 10 16.0934 0 0
1:54 pm 13:54 Sunny 87 30.6 69 20.6 55 55 Calm 29.85 1011 10 16.0934 0 0
2:54 pm 14:54 Sunny 87 30.6 67 19.4 51 51 VRB 3 6 29.85 1011 10 16.0934 0 0
3:54 pm 15:54 Mostly Cloudy 89 31.7 70 21.1 53 53 Calm 29.84 1010 10 16.0934 0 0
4:54 pm 16:54 Mostly Cloudy 88 31.1 69 20.6 54 54 Calm 29.83 1010 10 16.0934 0 0
5:54 pm 17:54 Partly Cloudy 89 31.7 71 21.7 55 55 Calm 29.82 1010 10 16.0934 0 0
6:54 pm 18:54 Mostly Cloudy 86 30 72 22.2 63 63 NE 6 9 29.82 1010 10 16.0934 0 0
7:54 pm 19:54 Mostly Cloudy 84 28.9 73 22.8 70 70 NNE 7 11 29.81 1010 10 16.0934 0 0
8:28 pm 20:28 Mostly Cloudy with Thunderstorms 84 28.9 72 22.2 67 67 NNE 8 13 29.79 1009 10 16.0934 0 0
8:43 pm 20:43 Cloudy 83 28.3 72 22.2 70 70 NNE 7 11 29.78 1009 10 16.0934 0 0
8:54 pm 20:54 Mostly Cloudy 83 28.3 72 22.2 70 70 NE 7 11 29.8 1009 10 16.0934 0 0
9:54 pm 21:54 Partly Cloudy 80 26.7 71 21.7 74 74 ENE 7 11 29.82 1010 10 16.0934 0 0
10:54 pm 22:54 Clear 78 25.6 69 20.6 74 74 N 5 7 29.8 1009 10 16.0934 0 0
11:54 pm 23:54 Mostly Cloudy 77 25 70 21.1 79 79 N 5 7 29.81 1010 10 16.0934 0 0

Powered by AerisWeather